| time (UTC) | temp F | wind direction | speed MPH | gust MPH | rain 1hr in | rain 24hr in | rain mn in | humidity % | barometer mb |
| 20260503181022 | 32 | 0 | 15.0 | 19.0 | 0.00 | 0.00 | 0.00 | 63 | 813.0 |
| 20260503180912 | 32 | 2 | 16.0 | 19.0 | 0.00 | 0.00 | 0.00 | 62 | 813.0 |
| 20260503180802 | 32 | 2 | 16.0 | 19.0 | 0.00 | 0.00 | 0.00 | 62 | 813.0 |
| 20260503180652 | 32 | 4 | 18.0 | 22.0 | 0.00 | 0.00 | 0.00 | 62 | 813.0 |
| 20260503180542 | 32 | 4 | 18.0 | 21.0 | 0.00 | 0.00 | 0.00 | 62 | 813.0 |
| 20260503180432 | 32 | 3 | 19.0 | 22.0 | 0.00 | 0.00 | 0.00 | 63 | 813.0 |
| 20260503180322 | 32 | 2 | 17.0 | 22.0 | 0.00 | 0.00 | 0.00 | 63 | 813.0 |
| 20260503180212 | 32 | 4 | 16.0 | 19.0 | 0.00 | 0.00 | 0.00 | 63 | 813.0 |
| 20260503175952 | 32 | 3 | 17.0 | 21.0 | 0.00 | 0.00 | 0.00 | 63 | 813.0 |
| 20260503175842 | 32 | 8 | 16.0 | 21.0 | 0.00 | 0.00 | 0.00 | 64 | 813.0 |
| 20260503175732 | 32 | 6 | 18.0 | 21.0 | 0.00 | 0.00 | 0.00 | 64 | 813.0 |
| 20260503175622 | 32 | 8 | 18.0 | 22.0 | 0.00 | 0.00 | 0.00 | 64 | 813.0 |
| 20260503175512 | 32 | 12 | 18.0 | 23.0 | 0.00 | 0.00 | 0.00 | 64 | 812.9 |
| 20260503175402 | 32 | 13 | 19.0 | 23.0 | 0.00 | 0.00 | 0.00 | 64 | 812.9 |
| 20260503175252 | 32 | 12 | 19.0 | 23.0 | 0.00 | 0.00 | 0.00 | 64 | 812.9 |
| 20260503175032 | 32 | 10 | 18.0 | 22.0 | 0.00 | 0.00 | 0.00 | 64 | 812.9 |
| 20260503174922 | 32 | 11 | 17.0 | 21.0 | 0.00 | 0.00 | 0.00 | 64 | 813.0 |
| 20260503174812 | 32 | 10 | 18.0 | 22.0 | 0.00 | 0.00 | 0.00 | 64 | 813.0 |
| 20260503174702 | 32 | 13 | 20.0 | 24.0 | 0.00 | 0.00 | 0.00 | 64 | 812.9 |
| 20260503174552 | 32 | 12 | 18.0 | 23.0 | 0.00 | 0.00 | 0.00 | 64 | 812.9 |
| 20260503174332 | 32 | 10 | 20.0 | 24.0 | 0.00 | 0.00 | 0.00 | 65 | 812.9 |
| 20260503174222 | 32 | 13 | 16.0 | 22.0 | 0.00 | 0.00 | 0.00 | 64 | 812.9 |
| 20260503174112 | 32 | 11 | 15.0 | 19.0 | 0.00 | 0.00 | 0.00 | 64 | 813.0 |
| 20260503174002 | 32 | 9 | 19.0 | 23.0 | 0.00 | 0.00 | 0.00 | 64 | 812.9 |
| 20260503173852 | 32 | 11 | 18.0 | 23.0 | 0.00 | 0.00 | 0.00 | 64 | 813.0 |
| 20260503173632 | 32 | 9 | 19.0 | 23.0 | 0.00 | 0.00 | 0.00 | 64 | 812.9 |
| 20260503173412 | 32 | 13 | 17.0 | 21.0 | 0.00 | 0.00 | 0.00 | 64 | 812.9 |
| 20260503173302 | 32 | 11 | 16.0 | 20.0 | 0.00 | 0.00 | 0.00 | 64 | 813.0 |
| 20260503173152 | 32 | 11 | 19.0 | 23.0 | 0.00 | 0.00 | 0.00 | 64 | 812.9 |
| 20260503173042 | 32 | 13 | 16.0 | 20.0 | 0.00 | 0.00 | 0.00 | 64 | 813.0 |
| 20260503172932 | 32 | 11 | 19.0 | 23.0 | 0.00 | 0.00 | 0.00 | 64 | 812.9 |
| 20260503172712 | 32 | 13 | 19.0 | 25.0 | 0.00 | 0.00 | 0.00 | 64 | 812.9 |
| 20260503172602 | 32 | 15 | 17.0 | 23.0 | 0.00 | 0.00 | 0.00 | 64 | 812.9 |
| 20260503172452 | 32 | 15 | 18.0 | 23.0 | 0.00 | 0.00 | 0.00 | 63 | 812.9 |
| 20260503172342 | 32 | 8 | 15.0 | 20.0 | 0.00 | 0.00 | 0.00 | 64 | 812.9 |
| 20260503172232 | 32 | 11 | 17.0 | 22.0 | 0.00 | 0.00 | 0.00 | 63 | 813.0 |
| 20260503172122 | 32 | 16 | 15.0 | 21.0 | 0.00 | 0.00 | 0.00 | 63 | 812.9 |
| 20260503172012 | 32 | 16 | 15.0 | 20.0 | 0.00 | 0.00 | 0.00 | 63 | 812.9 |
| 20260503171902 | 32 | 17 | 17.0 | 20.0 | 0.00 | 0.00 | 0.00 | 63 | 812.9 |
| 20260503171642 | 32 | 16 | 16.0 | 20.0 | 0.00 | 0.00 | 0.00 | 63 | 813.0 |
| 20260503171422 | 32 | 17 | 14.0 | 19.0 | 0.00 | 0.00 | 0.00 | 64 | 813.0 |
| 20260503171312 | 32 | 14 | 17.0 | 20.0 | 0.00 | 0.00 | 0.00 | 64 | 812.9 |
| 20260503171202 | 32 | 14 | 17.0 | 20.0 | 0.00 | 0.00 | 0.00 | 64 | 812.9 |
| 20260503171052 | 32 | 12 | 14.0 | 20.0 | 0.00 | 0.00 | 0.00 | 64 | 813.0 |
| 20260503170942 | 32 | 13 | 17.0 | 21.0 | 0.00 | 0.00 | 0.00 | 64 | 813.0 |
| 20260503170832 | 32 | 15 | 17.0 | 20.0 | 0.00 | 0.00 | 0.00 | 64 | 813.0 |
| 20260503170722 | 32 | 16 | 15.0 | 19.0 | 0.00 | 0.00 | 0.00 | 64 | 813.0 |
| 20260503170612 | 32 | 13 | 15.0 | 18.0 | 0.00 | 0.00 | 0.00 | 64 | 813.0 |
| 20260503170501 | 32 | 10 | 17.0 | 20.0 | 0.00 | 0.00 | 0.00 | 64 | 813.0 |
| 20260503170352 | 32 | 10 | 16.0 | 19.0 | 0.00 | 0.00 | 0.00 | 64 | 813.0 |
| 20260503170242 | 32 | 8 | 16.0 | 20.0 | 0.00 | 0.00 | 0.00 | 64 | 813.0 |
| 20260503170132 | 32 | 6 | 15.0 | 18.0 | 0.00 | 0.00 | 0.00 | 64 | 813.0 |
| 20260503160201 | 33 | 31 | 12.0 | 18.0 | 0.00 | 0.00 | 0.00 | 58 | 812.9 |
| 20260503150932 | 34 | 14 | 18.0 | 31.0 | 0.00 | 0.00 | 0.00 | 52 | 812.9 |
| 20260503150822 | 34 | 15 | 19.0 | 28.0 | 0.00 | 0.00 | 0.00 | 51 | 812.6 |
| 20260503150602 | 34 | 57 | 21.0 | 26.0 | 0.00 | 0.00 | 0.00 | 49 | 812.9 |
| 20260503150451 | 34 | 46 | 26.0 | 33.0 | 0.00 | 0.00 | 0.00 | 52 | 812.6 |
| 20260503150341 | 34 | 20 | 15.0 | 27.0 | 0.00 | 0.00 | 0.00 | 52 | 812.7 |
| 20260503150121 | 34 | 35 | 23.0 | 29.0 | 0.00 | 0.00 | 0.00 | 50 | 812.7 |
| 20260503140301 | 33 | 38 | 21.0 | 26.0 | 0.00 | 0.00 | 0.00 | 48 | 813.3 |
| 20260503140151 | 33 | 41 | 21.0 | 27.0 | 0.00 | 0.00 | 0.00 | 48 | 813.1 |
| 20260503131252 | 32 | 32 | 8.0 | 14.0 | 0.00 | 0.00 | 0.00 | 59 | 813.8 |
| 20260503131141 | 32 | 358 | 7.0 | 10.0 | 0.00 | 0.00 | 0.00 | 58 | 813.8 |
| 20260503131031 | 32 | 350 | 7.0 | 10.0 | 0.00 | 0.00 | 0.00 | 57 | 813.8 |
| 20260503130921 | 32 | 347 | 10.0 | 13.0 | 0.00 | 0.00 | 0.00 | 62 | 813.8 |
| 20260503130812 | 32 | 12 | 9.0 | 14.0 | 0.00 | 0.00 | 0.00 | 58 | 813.8 |
| 20260503130701 | 32 | 28 | 11.0 | 18.0 | 0.00 | 0.00 | 0.00 | 58 | 813.8 |
| 20260503130551 | 32 | 21 | 11.0 | 19.0 | 0.00 | 0.00 | 0.00 | 58 | 813.8 |
| 20260503130441 | 32 | 18 | 13.0 | 19.0 | 0.00 | 0.00 | 0.00 | 65 | 813.8 |
| 20260503130331 | 32 | 3 | 11.0 | 17.0 | 0.00 | 0.00 | 0.00 | 64 | 813.8 |
| 20260503130221 | 32 | 5 | 11.0 | 14.0 | 0.00 | 0.00 | 0.00 | 60 | 813.8 |
| 20260503120141 | 32 | 51 | 13.0 | 15.0 | 0.00 | 0.00 | 0.00 | 60 | 813.9 |
| 20260503110651 | 30 | 22 | 10.0 | 14.0 | 0.00 | 0.00 | 0.00 | 65 | 814.2 |
| 20260503110431 | 31 | 34 | 15.0 | 20.0 | 0.00 | 0.00 | 0.00 | 67 | 814.2 |
| 20260503110321 | 31 | 38 | 10.0 | 13.0 | 0.00 | 0.00 | 0.00 | 67 | 814.2 |
| 20260503110211 | 31 | 16 | 13.0 | 17.0 | 0.00 | 0.00 | 0.00 | 70 | 814.2 |
| 20260503100241 | 29 | 45 | 17.0 | 24.0 | 0.00 | 0.00 | 0.00 | 67 | 814.2 |
| 20260503100131 | 29 | 42 | 9.0 | 21.0 | 0.00 | 0.00 | 0.00 | 66 | 814.3 |
| 20260503090421 | 28 | 27 | 8.0 | 13.0 | 0.00 | 0.00 | 0.00 | 70 | 814.2 |
| 20260503090201 | 28 | 60 | 8.0 | 14.0 | 0.00 | 0.00 | 0.00 | 70 | 814.2 |
| 20260503081631 | 26 | 38 | 13.0 | 17.0 | 0.00 | 0.00 | 0.00 | 71 | 813.8 |
| 20260503081521 | 26 | 46 | 17.0 | 21.0 | 0.00 | 0.00 | 0.00 | 74 | 813.8 |
| 20260503081411 | 26 | 23 | 11.0 | 18.0 | 0.00 | 0.00 | 0.00 | 76 | 813.8 |
| 20260503081301 | 26 | 35 | 11.0 | 18.0 | 0.00 | 0.00 | 0.00 | 76 | 813.8 |
| 20260503081151 | 26 | 20 | 10.0 | 15.0 | 0.00 | 0.00 | 0.00 | 76 | 813.8 |
| 20260503080821 | 26 | 39 | 15.0 | 20.0 | 0.00 | 0.00 | 0.00 | 74 | 813.8 |
| 20260503080711 | 26 | 42 | 13.0 | 18.0 | 0.00 | 0.00 | 0.00 | 74 | 813.8 |
| 20260503080601 | 27 | 53 | 10.0 | 13.0 | 0.00 | 0.00 | 0.00 | 74 | 813.8 |
| 20260503080451 | 27 | 101 | 12.0 | 19.0 | 0.00 | 0.00 | 0.00 | 76 | 813.9 |
| 20260503080341 | 26 | 87 | 9.0 | 14.0 | 0.00 | 0.00 | 0.00 | 77 | 813.8 |
| 20260503080231 | 26 | 79 | 9.0 | 13.0 | 0.00 | 0.00 | 0.00 | 76 | 813.8 |
| 20260503080120 | 26 | 31 | 8.0 | 14.0 | 0.00 | 0.00 | 0.00 | 75 | 813.9 |
| 20260503072731 | 25 | 46 | 10.0 | 15.0 | 0.00 | 0.00 | 0.00 | 76 | 813.7 |
| 20260503072621 | 25 | 55 | 12.0 | 16.0 | 0.00 | 0.00 | 0.00 | 76 | 813.7 |
| 20260503072512 | 25 | 67 | 12.0 | 15.0 | 0.00 | 0.00 | 0.00 | 76 | 813.7 |
| 20260503072401 | 25 | 65 | 11.0 | 13.0 | 0.00 | 0.00 | 0.00 | 76 | 813.7 |
| 20260503072251 | 24 | 50 | 12.0 | 15.0 | 0.00 | 0.00 | 0.00 | 76 | 813.5 |
| 20260503072141 | 24 | 69 | 11.0 | 14.0 | 0.00 | 0.00 | 0.00 | 76 | 813.5 |
| 20260503072031 | 24 | 67 | 13.0 | 18.0 | 0.00 | 0.00 | 0.00 | 75 | 813.5 |
| 20260503071921 | 24 | 62 | 15.0 | 19.0 | 0.00 | 0.00 | 0.00 | 76 | 813.5 |
| 20260503071700 | 24 | 94 | 11.0 | 16.0 | 0.00 | 0.00 | 0.00 | 76 | 813.7 |
| 20260503071551 | 24 | 83 | 12.0 | 18.0 | 0.00 | 0.00 | 0.00 | 77 | 813.5 |
| 20260503071440 | 24 | 75 | 12.0 | 16.0 | 0.00 | 0.00 | 0.00 | 77 | 813.5 |
| 20260503071331 | 25 | 90 | 11.0 | 17.0 | 0.00 | 0.00 | 0.00 | 78 | 813.5 |
| 20260503071221 | 24 | 91 | 13.0 | 17.0 | 0.00 | 0.00 | 0.00 | 79 | 813.7 |
| 20260503071111 | 24 | 83 | 15.0 | 21.0 | 0.00 | 0.00 | 0.00 | 80 | 813.4 |
| 20260503071001 | 24 | 58 | 14.0 | 19.0 | 0.00 | 0.00 | 0.00 | 79 | 813.4 |
| 20260503070741 | 24 | 55 | 11.0 | 14.0 | 0.00 | 0.00 | 0.00 | 79 | 813.5 |
| 20260503070631 | 24 | 59 | 11.0 | 13.0 | 0.00 | 0.00 | 0.00 | 80 | 813.5 |
| 20260503070411 | 24 | 52 | 15.0 | 22.0 | 0.00 | 0.00 | 0.00 | 80 | 813.4 |
| 20260503070300 | 24 | 67 | 12.0 | 17.0 | 0.00 | 0.00 | 0.00 | 79 | 813.4 |
| 20260503060331 | 22 | 70 | 17.0 | 21.0 | 0.00 | 0.00 | 0.00 | 76 | 813.0 |
| 20260503060111 | 22 | 65 | 21.0 | 25.0 | 0.00 | 0.00 | 0.00 | 76 | 812.9 |
| 20260503055040 | 22 | 47 | 25.0 | 32.0 | 0.00 | 0.00 | 0.00 | 76 | 812.6 |
| 20260503054820 | 22 | 60 | 22.0 | 28.0 | 0.00 | 0.00 | 0.00 | 76 | 812.9 |
| 20260503054711 | 22 | 59 | 21.0 | 27.0 | 0.00 | 0.00 | 0.00 | 75 | 812.6 |
| 20260503054601 | 22 | 55 | 23.0 | 29.0 | 0.00 | 0.00 | 0.00 | 76 | 812.6 |
| 20260503054450 | 22 | 79 | 15.0 | 19.0 | 0.00 | 0.00 | 0.00 | 75 | 812.9 |
| 20260503054340 | 22 | 82 | 19.0 | 27.0 | 0.00 | 0.00 | 0.00 | 77 | 812.7 |
| 20260503054230 | 22 | 78 | 17.0 | 24.0 | 0.00 | 0.00 | 0.00 | 77 | 812.9 |
| 20260503054121 | 22 | 79 | 18.0 | 27.0 | 0.00 | 0.00 | 0.00 | 77 | 813.0 |
| 20260503053750 | 22 | 99 | 15.0 | 21.0 | 0.00 | 0.00 | 0.00 | 78 | 813.0 |
| 20260503053530 | 22 | 80 | 15.0 | 20.0 | 0.00 | 0.00 | 0.00 | 78 | 812.9 |
| 20260503053311 | 22 | 105 | 18.0 | 26.0 | 0.00 | 0.00 | 0.00 | 78 | 812.9 |
| 20260503053201 | 22 | 99 | 21.0 | 29.0 | 0.00 | 0.00 | 0.00 | 78 | 812.7 |
| 20260503053050 | 22 | 87 | 22.0 | 28.0 | 0.00 | 0.00 | 0.00 | 77 | 812.7 |
| 20260503052941 | 22 | 92 | 23.0 | 30.0 | 0.00 | 0.00 | 0.00 | 77 | 812.7 |
| 20260503052720 | 22 | 83 | 20.0 | 25.0 | 0.00 | 0.00 | 0.00 | 80 | 812.7 |
| 20260503052611 | 22 | 83 | 19.0 | 25.0 | 0.00 | 0.00 | 0.00 | 80 | 812.7 |
| 20260503052351 | 22 | 84 | 22.0 | 28.0 | 0.00 | 0.00 | 0.00 | 78 | 812.6 |
| 20260503052240 | 22 | 82 | 22.0 | 27.0 | 0.00 | 0.00 | 0.00 | 79 | 812.6 |
| 20260503052020 | 22 | 93 | 25.0 | 29.0 | 0.00 | 0.00 | 0.00 | 80 | 812.6 |
| 20260503051911 | 22 | 84 | 21.0 | 32.0 | 0.00 | 0.00 | 0.00 | 80 | 812.7 |
| 20260503051801 | 22 | 91 | 23.0 | 30.0 | 0.00 | 0.00 | 0.00 | 80 | 812.6 |
| 20260503051541 | 22 | 88 | 23.0 | 34.0 | 0.00 | 0.00 | 0.00 | 81 | 812.6 |
| 20260503051430 | 22 | 89 | 23.0 | 33.0 | 0.00 | 0.00 | 0.00 | 79 | 812.5 |
| 20260503051321 | 22 | 80 | 24.0 | 29.0 | 0.00 | 0.00 | 0.00 | 79 | 812.5 |
| 20260503051211 | 22 | 92 | 22.0 | 29.0 | 0.00 | 0.00 | 0.00 | 81 | 812.6 |
| 20260503050951 | 22 | 87 | 23.0 | 30.0 | 0.00 | 0.00 | 0.00 | 81 | 812.5 |
| 20260503050841 | 22 | 83 | 24.0 | 32.0 | 0.00 | 0.00 | 0.00 | 80 | 812.3 |
| 20260503050730 | 22 | 81 | 23.0 | 27.0 | 0.00 | 0.00 | 0.00 | 82 | 812.5 |
| 20260503050620 | 22 | 87 | 23.0 | 31.0 | 0.00 | 0.00 | 0.00 | 82 | 812.6 |
| 20260503050510 | 22 | 88 | 23.0 | 28.0 | 0.00 | 0.00 | 0.00 | 82 | 812.6 |
| 20260503050401 | 22 | 84 | 22.0 | 31.0 | 0.00 | 0.00 | 0.00 | 82 | 812.5 |
| 20260503050250 | 22 | 83 | 21.0 | 26.0 | 0.00 | 0.00 | 0.00 | 81 | 812.6 |
| 20260503050141 | 22 | 90 | 21.0 | 27.0 | 0.00 | 0.00 | 0.00 | 81 | 812.6 |
| 20260503050031 | 22 | 96 | 21.0 | 27.0 | 0.00 | 0.00 | 0.00 | 82 | 812.6 |
| 20260503045811 | 22 | 88 | 22.0 | 29.0 | 0.00 | 0.00 | 0.00 | 82 | 812.5 |
| 20260503045700 | 22 | 94 | 22.0 | 27.0 | 0.00 | 0.00 | 0.00 | 81 | 812.5 |
| 20260503045440 | 22 | 88 | 22.0 | 31.0 | 0.00 | 0.00 | 0.00 | 83 | 812.6 |
| 20260503045331 | 22 | 90 | 22.0 | 29.0 | 0.00 | 0.00 | 0.00 | 84 | 812.5 |
| 20260503045220 | 22 | 87 | 22.0 | 28.0 | 0.00 | 0.00 | 0.00 | 83 | 812.5 |
| 20260503045001 | 21 | 93 | 20.0 | 27.0 | 0.00 | 0.00 | 0.00 | 83 | 812.5 |
| 20260503044741 | 21 | 95 | 22.0 | 31.0 | 0.00 | 0.00 | 0.00 | 82 | 812.3 |
| 20260503044630 | 21 | 87 | 21.0 | 27.0 | 0.00 | 0.00 | 0.00 | 83 | 812.3 |
| 20260503044520 | 21 | 88 | 23.0 | 31.0 | 0.00 | 0.00 | 0.00 | 83 | 812.3 |
| 20260503044150 | 21 | 86 | 21.0 | 27.0 | 0.00 | 0.00 | 0.00 | 83 | 812.6 |
| 20260503044040 | 21 | 87 | 22.0 | 29.0 | 0.00 | 0.00 | 0.00 | 83 | 812.3 |
| 20260503043930 | 21 | 86 | 22.0 | 28.0 | 0.00 | 0.00 | 0.00 | 86 | 812.3 |
| 20260503043821 | 21 | 93 | 22.0 | 27.0 | 0.00 | 0.00 | 0.00 | 83 | 812.5 |
| 20260503043711 | 21 | 90 | 22.0 | 27.0 | 0.00 | 0.00 | 0.00 | 84 | 812.2 |
| 20260503043601 | 21 | 97 | 21.0 | 28.0 | 0.00 | 0.00 | 0.00 | 86 | 812.3 |
| 20260503043450 | 21 | 84 | 22.0 | 26.0 | 0.00 | 0.00 | 0.00 | 86 | 812.2 |
| 20260503043340 | 21 | 96 | 23.0 | 32.0 | 0.00 | 0.00 | 0.00 | 85 | 812.2 |
| 20260503043230 | 21 | 89 | 23.0 | 29.0 | 0.00 | 0.00 | 0.00 | 85 | 812.2 |
| 20260503043010 | 21 | 89 | 22.0 | 29.0 | 0.00 | 0.00 | 0.00 | 86 | 812.2 |
| 20260503042901 | 21 | 89 | 23.0 | 29.0 | 0.00 | 0.00 | 0.00 | 87 | 812.2 |
| 20260503042750 | 21 | 88 | 24.0 | 28.0 | 0.00 | 0.00 | 0.00 | 88 | 812.2 |
| 20260503042530 | 21 | 87 | 23.0 | 30.0 | 0.00 | 0.00 | 0.00 | 86 | 812.2 |
| 20260503042421 | 21 | 83 | 21.0 | 25.0 | 0.00 | 0.00 | 0.00 | 85 | 812.2 |
| 20260503042310 | 21 | 88 | 24.0 | 29.0 | 0.00 | 0.00 | 0.00 | 86 | 812.2 |
| 20260503042200 | 21 | 85 | 24.0 | 32.0 | 0.00 | 0.00 | 0.00 | 86 | 812.2 |
| 20260503041941 | 21 | 86 | 24.0 | 30.0 | 0.00 | 0.00 | 0.00 | 86 | 812.2 |
| 20260503041720 | 21 | 85 | 24.0 | 30.0 | 0.00 | 0.00 | 0.00 | 87 | 812.2 |
| 20260503041500 | 21 | 91 | 21.0 | 31.0 | 0.00 | 0.00 | 0.00 | 86 | 812.2 |
| 20260503041240 | 21 | 83 | 21.0 | 33.0 | 0.00 | 0.00 | 0.00 | 87 | 812.2 |
| 20260503041130 | 21 | 81 | 22.0 | 26.0 | 0.00 | 0.00 | 0.00 | 87 | 812.2 |
| 20260503041020 | 21 | 90 | 23.0 | 28.0 | 0.00 | 0.00 | 0.00 | 88 | 812.2 |
| 20260503040910 | 21 | 92 | 24.0 | 32.0 | 0.00 | 0.00 | 0.00 | 88 | 812.1 |
| 20260503040800 | 21 | 87 | 22.0 | 26.0 | 0.00 | 0.00 | 0.00 | 89 | 812.2 |
| 20260503040650 | 21 | 91 | 22.0 | 31.0 | 0.00 | 0.00 | 0.00 | 90 | 812.1 |
| 20260503040540 | 21 | 91 | 24.0 | 32.0 | 0.00 | 0.00 | 0.00 | 90 | 812.2 |
| 20260503040431 | 21 | 102 | 23.0 | 33.0 | 0.00 | 0.00 | 0.00 | 90 | 812.2 |
| 20260503040210 | 21 | 81 | 21.0 | 28.0 | 0.00 | 0.00 | 0.00 | 92 | 812.2 |
| 20260503040100 | 21 | 90 | 22.0 | 31.0 | 0.00 | 0.00 | 0.00 | 92 | 812.1 |
| 20260503035950 | 21 | 99 | 21.0 | 30.0 | 0.00 | 0.00 | 0.00 | 91 | 812.1 |
| 20260503035841 | 21 | 97 | 22.0 | 35.0 | 0.00 | 0.00 | 0.00 | 91 | 812.1 |
| 20260503035730 | 21 | 93 | 22.0 | 32.0 | 0.00 | 0.00 | 0.00 | 92 | 812.2 |
| 20260503035620 | 21 | 94 | 22.0 | 31.0 | 0.00 | 0.00 | 0.00 | 92 | 812.1 |
| 20260503035510 | 21 | 86 | 22.0 | 29.0 | 0.00 | 0.00 | 0.00 | 92 | 811.8 |
| 20260503035401 | 21 | 97 | 24.0 | 32.0 | 0.00 | 0.00 | 0.00 | 92 | 812.1 |
| 20260503035250 | 21 | 81 | 23.0 | 29.0 | 0.00 | 0.00 | 0.00 | 92 | 811.8 |
| 20260503035140 | 21 | 87 | 21.0 | 30.0 | 0.00 | 0.00 | 0.00 | 93 | 812.1 |
| 20260503035031 | 21 | 84 | 24.0 | 33.0 | 0.00 | 0.00 | 0.00 | 94 | 812.1 |
| 20260503034920 | 21 | 87 | 22.0 | 31.0 | 0.00 | 0.00 | 0.00 | 93 | 812.1 |
| 20260503034810 | 21 | 88 | 21.0 | 32.0 | 0.00 | 0.00 | 0.00 | 93 | 812.1 |
| 20260503034700 | 21 | 92 | 20.0 | 29.0 | 0.00 | 0.00 | 0.00 | 93 | 812.1 |
| 20260503034550 | 21 | 79 | 21.0 | 27.0 | 0.00 | 0.00 | 0.00 | 93 | 812.1 |
| 20260503034441 | 21 | 95 | 20.0 | 26.0 | 0.00 | 0.00 | 0.00 | 94 | 812.1 |
| 20260503034331 | 21 | 108 | 21.0 | 32.0 | 0.00 | 0.00 | 0.00 | 94 | 812.1 |
| 20260503034110 | 20 | 83 | 21.0 | 32.0 | 0.00 | 0.00 | 0.00 | 93 | 812.1 |
| 20260503034000 | 21 | 107 | 18.0 | 28.0 | 0.00 | 0.00 | 0.00 | 93 | 812.1 |
| 20260503033740 | 21 | 88 | 21.0 | 29.0 | 0.00 | 0.00 | 0.00 | 94 | 811.9 |
| 20260503033630 | 20 | 96 | 21.0 | 31.0 | 0.00 | 0.00 | 0.00 | 94 | 812.1 |
| 20260503033520 | 20 | 88 | 23.0 | 28.0 | 0.00 | 0.00 | 0.00 | 94 | 811.8 |
| 20260503033410 | 20 | 95 | 23.0 | 29.0 | 0.00 | 0.00 | 0.00 | 94 | 812.1 |
| 20260503033300 | 20 | 82 | 23.0 | 27.0 | 0.00 | 0.00 | 0.00 | 95 | 811.8 |
| 20260503032931 | 20 | 103 | 25.0 | 32.0 | 0.00 | 0.00 | 0.00 | 95 | 812.1 |
| 20260503032820 | 20 | 72 | 22.0 | 26.0 | 0.00 | 0.00 | 0.00 | 95 | 811.8 |
| 20260503032710 | 20 | 85 | 21.0 | 25.0 | 0.00 | 0.00 | 0.00 | 94 | 811.9 |
| 20260503032600 | 20 | 92 | 23.0 | 31.0 | 0.00 | 0.00 | 0.00 | 94 | 811.8 |
| 20260503032450 | 20 | 83 | 22.0 | 30.0 | 0.00 | 0.00 | 0.00 | 94 | 811.8 |
| 20260503032340 | 20 | 92 | 21.0 | 29.0 | 0.00 | 0.00 | 0.00 | 94 | 811.9 |
| 20260503032230 | 20 | 106 | 19.0 | 30.0 | 0.00 | 0.00 | 0.00 | 94 | 811.9 |
| 20260503032120 | 20 | 79 | 20.0 | 24.0 | 0.00 | 0.00 | 0.00 | 93 | 811.8 |
| 20260503032010 | 20 | 80 | 21.0 | 26.0 | 0.00 | 0.00 | 0.00 | 93 | 811.8 |
| 20260503031901 | 20 | 93 | 18.0 | 27.0 | 0.00 | 0.00 | 0.00 | 94 | 811.8 |
| 20260503031750 | 20 | 83 | 22.0 | 31.0 | 0.00 | 0.00 | 0.00 | 94 | 811.8 |
| 20260503031530 | 20 | 84 | 20.0 | 25.0 | 0.00 | 0.00 | 0.00 | 94 | 812.1 |
| 20260503031420 | 20 | 86 | 20.0 | 28.0 | 0.00 | 0.00 | 0.00 | 93 | 811.9 |
| 20260503031311 | 20 | 93 | 21.0 | 31.0 | 0.00 | 0.00 | 0.00 | 93 | 811.9 |
| 20260503031200 | 20 | 94 | 22.0 | 32.0 | 0.00 | 0.00 | 0.00 | 93 | 812.1 |
| 20260503030940 | 20 | 88 | 22.0 | 27.0 | 0.00 | 0.00 | 0.00 | 92 | 811.8 |
| 20260503030830 | 20 | 91 | 23.0 | 29.0 | 0.00 | 0.00 | 0.00 | 94 | 811.8 |
| 20260503030720 | 20 | 90 | 23.0 | 30.0 | 0.00 | 0.00 | 0.00 | 95 | 811.9 |
| 20260503030610 | 20 | 91 | 23.0 | 34.0 | 0.00 | 0.00 | 0.00 | 94 | 811.8 |
| 20260503030500 | 20 | 89 | 22.0 | 33.0 | 0.00 | 0.00 | 0.00 | 94 | 811.8 |
| 20260503030351 | 20 | 95 | 24.0 | 31.0 | 0.00 | 0.00 | 0.00 | 94 | 811.8 |
| 20260503030240 | 20 | 90 | 21.0 | 29.0 | 0.00 | 0.00 | 0.00 | 94 | 811.8 |
| 20260503030130 | 20 | 89 | 23.0 | 28.0 | 0.00 | 0.00 | 0.00 | 95 | 811.8 |
| 20260503025910 | 20 | 90 | 21.0 | 27.0 | 0.00 | 0.00 | 0.00 | 95 | 811.8 |
| 20260503025801 | 20 | 97 | 21.0 | 31.0 | 0.00 | 0.00 | 0.00 | 95 | 811.9 |
| 20260503025540 | 20 | 100 | 21.0 | 33.0 | 0.00 | 0.00 | 0.00 | 95 | 811.8 |
| 20260503025430 | 20 | 90 | 23.0 | 33.0 | 0.00 | 0.00 | 0.00 | 94 | 811.8 |
| 20260503025320 | 20 | 88 | 21.0 | 33.0 | 0.00 | 0.00 | 0.00 | 95 | 811.9 |
| 20260503025210 | 20 | 91 | 22.0 | 28.0 | 0.00 | 0.00 | 0.00 | 96 | 811.8 |
| 20260503025100 | 20 | 94 | 23.0 | 31.0 | 0.00 | 0.00 | 0.00 | 95 | 811.8 |
| 20260503024950 | 20 | 95 | 23.0 | 30.0 | 0.00 | 0.00 | 0.00 | 94 | 811.8 |
| 20260503024840 | 20 | 92 | 23.0 | 34.0 | 0.00 | 0.00 | 0.00 | 95 | 811.8 |
| 20260503024730 | 20 | 85 | 23.0 | 30.0 | 0.00 | 0.00 | 0.00 | 94 | 811.7 |
| 20260503024620 | 20 | 90 | 21.0 | 27.0 | 0.00 | 0.00 | 0.00 | 94 | 811.7 |
| 20260503024510 | 20 | 88 | 24.0 | 32.0 | 0.00 | 0.00 | 0.00 | 95 | 811.7 |
| 20260503024250 | 20 | 86 | 24.0 | 30.0 | 0.00 | 0.00 | 0.00 | 95 | 811.7 |
| 20260503024030 | 20 | 86 | 20.0 | 31.0 | 0.00 | 0.00 | 0.00 | 97 | 811.8 |
| 20260503023811 | 20 | 79 | 23.0 | 28.0 | 0.00 | 0.00 | 0.00 | 96 | 811.5 |
| 20260503023701 | 20 | 94 | 22.0 | 28.0 | 0.00 | 0.00 | 0.00 | 96 | 811.8 |
| 20260503023550 | 20 | 93 | 20.0 | 27.0 | 0.00 | 0.00 | 0.00 | 95 | 811.8 |
| 20260503023440 | 20 | 91 | 20.0 | 29.0 | 0.00 | 0.00 | 0.00 | 95 | 811.8 |
| 20260503023330 | 20 | 98 | 24.0 | 32.0 | 0.00 | 0.00 | 0.00 | 95 | 811.8 |
| 20260503023220 | 20 | 92 | 22.0 | 30.0 | 0.00 | 0.00 | 0.00 | 95 | 811.8 |
| 20260503023110 | 20 | 84 | 22.0 | 30.0 | 0.00 | 0.00 | 0.00 | 94 | 811.8 |
| 20260503023001 | 20 | 92 | 21.0 | 29.0 | 0.00 | 0.00 | 0.00 | 94 | 811.8 |
| 20260503022742 | 20 | 91 | 24.0 | 33.0 | 0.00 | 0.00 | 0.00 | 94 | 811.8 |
| 20260503022520 | 20 | 92 | 22.0 | 28.0 | 0.00 | 0.00 | 0.00 | 94 | 811.8 |
| 20260503022410 | 20 | 91 | 23.0 | 31.0 | 0.00 | 0.00 | 0.00 | 94 | 811.8 |
| 20260503022300 | 20 | 87 | 21.0 | 26.0 | 0.00 | 0.00 | 0.00 | 94 | 811.8 |
| 20260503022150 | 20 | 99 | 23.0 | 33.0 | 0.00 | 0.00 | 0.00 | 93 | 811.8 |
| 20260503021931 | 20 | 93 | 21.0 | 30.0 | 0.00 | 0.00 | 0.00 | 93 | 811.8 |
| 20260503021711 | 20 | 85 | 24.0 | 32.0 | 0.00 | 0.00 | 0.00 | 93 | 811.8 |
| 20260503021600 | 20 | 97 | 25.0 | 35.0 | 0.00 | 0.00 | 0.00 | 93 | 811.8 |
| 20260503021450 | 20 | 94 | 22.0 | 29.0 | 0.00 | 0.00 | 0.00 | 93 | 811.8 |
| 20260503021340 | 20 | 87 | 24.0 | 33.0 | 0.00 | 0.00 | 0.00 | 93 | 811.8 |
| 20260503021230 | 20 | 95 | 24.0 | 33.0 | 0.00 | 0.00 | 0.00 | 92 | 811.8 |
| 20260503021121 | 20 | 103 | 25.0 | 36.0 | 0.00 | 0.00 | 0.00 | 92 | 811.8 |
| 20260503021011 | 20 | 91 | 22.0 | 28.0 | 0.00 | 0.00 | 0.00 | 93 | 811.8 |
| 20260503020901 | 20 | 83 | 24.0 | 30.0 | 0.00 | 0.00 | 0.00 | 92 | 811.8 |
| 20260503020750 | 20 | 89 | 25.0 | 31.0 | 0.00 | 0.00 | 0.00 | 92 | 811.8 |
| 20260503020530 | 20 | 89 | 26.0 | 35.0 | 0.00 | 0.00 | 0.00 | 92 | 811.7 |
| 20260503020420 | 20 | 92 | 26.0 | 31.0 | 0.00 | 0.00 | 0.00 | 92 | 811.7 |
| 20260503020310 | 20 | 92 | 27.0 | 32.0 | 0.00 | 0.00 | 0.00 | 92 | 811.8 |
| 20260503020201 | 20 | 98 | 27.0 | 32.0 | 0.00 | 0.00 | 0.00 | 93 | 811.8 |
| 20260503020050 | 20 | 91 | 27.0 | 35.0 | 0.00 | 0.00 | 0.00 | 93 | 811.8 |
| 20260503015942 | 20 | 98 | 26.0 | 35.0 | 0.00 | 0.00 | 0.00 | 93 | 811.8 |
| 20260503015721 | 20 | 90 | 27.0 | 31.0 | 0.00 | 0.00 | 0.00 | 93 | 811.8 |
| 20260503015500 | 20 | 93 | 27.0 | 34.0 | 0.00 | 0.00 | 0.00 | 93 | 811.8 |
| 20260503015350 | 20 | 92 | 27.0 | 33.0 | 0.00 | 0.00 | 0.00 | 93 | 811.7 |
| 20260503015240 | 20 | 90 | 24.0 | 38.0 | 0.00 | 0.00 | 0.00 | 93 | 811.7 |
| 20260503015131 | 20 | 95 | 26.0 | 35.0 | 0.00 | 0.00 | 0.00 | 93 | 811.8 |
| 20260503015020 | 20 | 95 | 25.0 | 36.0 | 0.00 | 0.00 | 0.00 | 93 | 811.9 |
| 20260503014910 | 20 | 97 | 26.0 | 34.0 | 0.00 | 0.00 | 0.00 | 93 | 812.1 |
| 20260503014800 | 20 | 94 | 26.0 | 36.0 | 0.00 | 0.00 | 0.00 | 93 | 811.8 |
| 20260503014651 | 20 | 94 | 27.0 | 34.0 | 0.00 | 0.00 | 0.00 | 94 | 811.8 |
| 20260503014540 | 20 | 95 | 25.0 | 32.0 | 0.00 | 0.00 | 0.00 | 94 | 811.8 |
| 20260503014321 | 20 | 110 | 24.0 | 37.0 | 0.00 | 0.00 | 0.00 | 93 | 811.8 |
| 20260503014100 | 20 | 91 | 25.0 | 31.0 | 0.00 | 0.00 | 0.00 | 94 | 811.8 |
| 20260503013951 | 20 | 92 | 26.0 | 30.0 | 0.00 | 0.00 | 0.00 | 96 | 811.8 |
| 20260503013840 | 20 | 94 | 28.0 | 35.0 | 0.00 | 0.00 | 0.00 | 96 | 811.9 |
| 20260503013620 | 20 | 88 | 27.0 | 34.0 | 0.00 | 0.00 | 0.00 | 96 | 811.7 |
| 20260503013511 | 20 | 84 | 26.0 | 37.0 | 0.00 | 0.00 | 0.00 | 96 | 811.7 |
| 20260503013406 | 20 | 92 | 24.0 | 37.0 | 0.00 | 0.00 | 0.00 | 96 | 811.8 |
| 20260503013250 | 20 | 90 | 27.0 | 35.0 | 0.00 | 0.00 | 0.00 | 96 | 811.8 |
| 20260503013144 | 20 | 85 | 25.0 | 35.0 | 0.00 | 0.00 | 0.00 | 96 | 811.8 |
| 20260503013030 | 20 | 87 | 26.0 | 31.0 | 0.00 | 0.00 | 0.00 | 96 | 811.8 |
| 20260503012920 | 20 | 88 | 25.0 | 33.0 | 0.00 | 0.00 | 0.00 | 97 | 811.8 |
| 20260503012811 | 20 | 86 | 26.0 | 34.0 | 0.00 | 0.00 | 0.00 | 97 | 811.8 |
| 20260503012700 | 20 | 92 | 25.0 | 35.0 | 0.00 | 0.00 | 0.00 | 96 | 811.8 |
| 20260503012550 | 20 | 86 | 25.0 | 32.0 | 0.00 | 0.00 | 0.00 | 96 | 811.8 |
| 20260503012330 | 20 | 89 | 25.0 | 34.0 | 0.00 | 0.00 | 0.00 | 97 | 811.8 |
| 20260503012221 | 20 | 95 | 22.0 | 30.0 | 0.00 | 0.00 | 0.00 | 96 | 811.9 |
| 20260503012110 | 20 | 85 | 21.0 | 28.0 | 0.00 | 0.00 | 0.00 | 96 | 811.8 |
| 20260503012000 | 20 | 98 | 19.0 | 34.0 | 0.00 | 0.00 | 0.00 | 96 | 811.9 |
| 20260503011851 | 20 | 91 | 23.0 | 31.0 | 0.00 | 0.00 | 0.00 | 97 | 811.9 |
| 20260503011740 | 20 | 103 | 20.0 | 30.0 | 0.00 | 0.00 | 0.00 | 97 | 811.8 |
| 20260503011630 | 20 | 79 | 24.0 | 32.0 | 0.00 | 0.00 | 0.00 | 97 | 811.8 |
| 20260503011520 | 20 | 79 | 21.0 | 28.0 | 0.00 | 0.00 | 0.00 | 97 | 811.8 |
| 20260503011300 | 20 | 70 | 22.0 | 26.0 | 0.00 | 0.00 | 0.00 | 97 | 811.8 |
| 20260503011150 | 20 | 88 | 21.0 | 28.0 | 0.00 | 0.00 | 0.00 | 96 | 811.7 |
| 20260503011040 | 20 | 90 | 22.0 | 33.0 | 0.00 | 0.00 | 0.00 | 96 | 812.1 |
| 20260503010930 | 20 | 85 | 21.0 | 33.0 | 0.00 | 0.00 | 0.00 | 96 | 811.9 |
| 20260503010823 | 20 | 87 | 21.0 | 31.0 | 0.00 | 0.00 | 0.00 | 96 | 812.1 |
| 20260503010710 | 20 | 93 | 21.0 | 33.0 | 0.00 | 0.00 | 0.00 | 96 | 812.1 |
| 20260503010600 | 21 | 82 | 21.0 | 27.0 | 0.00 | 0.00 | 0.00 | 97 | 811.8 |
| 20260503010230 | 20 | 87 | 23.0 | 25.0 | 0.00 | 0.00 | 0.00 | 97 | 811.8 |
| 20260503010010 | 20 | 93 | 23.0 | 32.0 | 0.00 | 0.00 | 0.00 | 96 | 812.1 |
| 20260503005900 | 20 | 92 | 23.0 | 31.0 | 0.00 | 0.00 | 0.00 | 96 | 811.8 |
| 20260503005750 | 20 | 93 | 26.0 | 33.0 | 0.00 | 0.00 | 0.00 | 96 | 811.8 |
| 20260503005640 | 20 | 95 | 25.0 | 37.0 | 0.00 | 0.00 | 0.00 | 96 | 811.7 |
| 20260503005310 | 20 | 88 | 26.0 | 33.0 | 0.00 | 0.00 | 0.00 | 97 | 811.8 |
| 20260503005200 | 21 | 93 | 27.0 | 37.0 | 0.00 | 0.00 | 0.00 | 97 | 811.8 |
| 20260503005050 | 21 | 93 | 26.0 | 35.0 | 0.00 | 0.00 | 0.00 | 97 | 811.8 |
| 20260503004940 | 21 | 88 | 28.0 | 37.0 | 0.00 | 0.00 | 0.00 | 97 | 811.8 |
| 20260503004720 | 21 | 90 | 26.0 | 37.0 | 0.00 | 0.00 | 0.00 | 98 | 811.8 |
| 20260503004500 | 21 | 85 | 28.0 | 34.0 | 0.00 | 0.00 | 0.00 | 98 | 811.8 |
| 20260503004350 | 21 | 89 | 28.0 | 34.0 | 0.00 | 0.00 | 0.00 | 98 | 811.8 |
| 20260503004240 | 21 | 88 | 29.0 | 36.0 | 0.00 | 0.00 | 0.00 | 98 | 811.5 |
| 20260503004130 | 21 | 84 | 29.0 | 35.0 | 0.00 | 0.00 | 0.00 | 98 | 811.8 |
| 20260503003910 | 21 | 83 | 30.0 | 34.0 | 0.00 | 0.00 | 0.00 | 98 | 811.4 |
| 20260503003800 | 21 | 91 | 29.0 | 39.0 | 0.00 | 0.00 | 0.00 | 98 | 811.8 |
| 20260503003541 | 21 | 87 | 27.0 | 40.0 | 0.00 | 0.00 | 0.00 | 98 | 811.7 |
| 20260503003430 | 21 | 87 | 28.0 | 33.0 | 0.00 | 0.00 | 0.00 | 98 | 811.7 |
| 20260503003320 | 21 | 87 | 27.0 | 31.0 | 0.00 | 0.00 | 0.00 | 99 | 811.8 |
| 20260503003100 | 21 | 90 | 29.0 | 34.0 | 0.00 | 0.00 | 0.00 | 99 | 811.8 |
| 20260503002950 | 21 | 86 | 28.0 | 35.0 | 0.00 | 0.00 | 0.00 | 99 | 811.8 |
| 20260503002840 | 21 | 85 | 25.0 | 29.0 | 0.00 | 0.00 | 0.00 | 98 | 811.8 |
| 20260503002730 | 21 | 90 | 28.0 | 33.0 | 0.00 | 0.00 | 0.00 | 98 | 811.8 |
| 20260503002620 | 21 | 86 | 25.0 | 32.0 | 0.00 | 0.00 | 0.00 | 98 | 811.8 |
| 20260503002510 | 21 | 99 | 26.0 | 35.0 | 0.00 | 0.00 | 0.00 | 98 | 811.8 |
| 20260503002400 | 21 | 95 | 26.0 | 37.0 | 0.00 | 0.00 | 0.00 | 98 | 811.8 |
| 20260503002141 | 21 | 84 | 24.0 | 29.0 | 0.00 | 0.00 | 0.00 | 99 | 811.8 |
| 20260503002030 | 21 | 86 | 26.0 | 33.0 | 0.00 | 0.00 | 0.00 | 98 | 811.9 |
| 20260503001920 | 21 | 97 | 23.0 | 28.0 | 0.00 | 0.00 | 0.00 | 98 | 812.2 |
| 20260503001811 | 21 | 97 | 24.0 | 34.0 | 0.00 | 0.00 | 0.00 | 98 | 811.8 |
| 20260503001700 | 21 | 97 | 24.0 | 30.0 | 0.00 | 0.00 | 0.00 | 98 | 811.9 |
| 20260503001550 | 21 | 96 | 25.0 | 34.0 | 0.00 | 0.00 | 0.00 | 98 | 812.1 |
| 20260503001440 | 21 | 90 | 24.0 | 30.0 | 0.00 | 0.00 | 0.00 | 99 | 812.1 |
| 20260503001220 | 21 | 99 | 24.0 | 31.0 | 0.00 | 0.00 | 0.00 | 99 | 812.1 |
| 20260503001110 | 21 | 105 | 23.0 | 33.0 | 0.00 | 0.00 | 0.00 | 99 | 812.2 |
| 20260503001000 | 21 | 98 | 22.0 | 34.0 | 0.00 | 0.00 | 0.00 | 99 | 812.1 |
| 20260503000850 | 21 | 95 | 25.0 | 29.0 | 0.00 | 0.00 | 0.00 | 99 | 812.2 |
| 20260503000740 | 21 | 96 | 27.0 | 32.0 | 0.00 | 0.00 | 0.00 | 99 | 812.2 |
| 20260503000632 | 21 | 91 | 24.0 | 33.0 | 0.00 | 0.00 | 0.00 | 99 | 811.9 |
| 20260503000520 | 21 | 95 | 28.0 | 35.0 | 0.00 | 0.00 | 0.00 | 99 | 811.9 |
| 20260503000301 | 21 | 92 | 27.0 | 34.0 | 0.00 | 0.00 | 0.00 | 99 | 812.1 |
| 20260503000151 | 21 | 105 | 28.0 | 43.0 | 0.00 | 0.00 | 0.00 | 99 | 811.8 |
| 20260503000041 | 21 | 91 | 29.0 | 38.0 | 0.00 | 0.00 | 0.00 | 10 | 811.8 |
| 20260502235820 | 21 | 90 | 27.0 | 34.0 | 0.00 | 0.00 | 0.00 | 10 | 811.8 |
| 20260502235710 | 21 | 92 | 28.0 | 37.0 | 0.00 | 0.00 | 0.00 | 10 | 811.8 |
| 20260502235600 | 21 | 95 | 27.0 | 38.0 | 0.00 | 0.00 | 0.00 | 10 | 811.8 |
| 20260502235230 | 21 | 90 | 28.0 | 35.0 | 0.00 | 0.00 | 0.00 | 10 | 812.1 |
| 20260502234901 | 21 | 89 | 26.0 | 35.0 | 0.00 | 0.00 | 0.00 | 10 | 811.8 |
| 20260502234640 | 21 | 109 | 23.0 | 34.0 | 0.00 | 0.00 | 0.00 | 10 | 812.2 |
| 20260502234531 | 21 | 98 | 27.0 | 39.0 | 0.00 | 0.00 | 0.00 | 10 | 811.7 |
| 20260502234420 | 21 | 97 | 26.0 | 39.0 | 0.00 | 0.00 | 0.00 | 10 | 812.1 |
| 20260502234310 | 21 | 86 | 27.0 | 33.0 | 0.00 | 0.00 | 0.00 | 10 | 811.9 |
| 20260502234200 | 21 | 85 | 30.0 | 37.0 | 0.00 | 0.00 | 0.00 | 10 | 811.7 |
| 20260502234050 | 21 | 92 | 30.0 | 38.0 | 0.00 | 0.00 | 0.00 | 10 | 811.8 |
| 20260502233940 | 21 | 88 | 30.0 | 36.0 | 0.00 | 0.00 | 0.00 | 10 | 811.8 |
| 20260502233830 | 21 | 91 | 27.0 | 34.0 | 0.00 | 0.00 | 0.00 | 10 | 812.1 |
| 20260502233720 | 21 | 88 | 25.0 | 29.0 | 0.00 | 0.00 | 0.00 | 10 | 811.9 |
| 20260502233610 | 21 | 94 | 26.0 | 38.0 | 0.00 | 0.00 | 0.00 | 10 | 811.8 |
| 20260502233500 | 21 | 85 | 20.0 | 26.0 | 0.00 | 0.00 | 0.00 | 10 | 811.8 |
| 20260502233350 | 21 | 80 | 21.0 | 29.0 | 0.00 | 0.00 | 0.00 | 10 | 811.8 |
| 20260502233240 | 21 | 93 | 19.0 | 29.0 | 0.00 | 0.00 | 0.00 | 10 | 811.8 |
| 20260502233130 | 21 | 79 | 21.0 | 32.0 | 0.00 | 0.00 | 0.00 | 10 | 811.8 |
| 20260502233020 | 21 | 75 | 22.0 | 27.0 | 0.00 | 0.00 | 0.00 | 10 | 811.8 |
| 20260502232910 | 21 | 74 | 23.0 | 28.0 | 0.00 | 0.00 | 0.00 | 10 | 811.8 |
| 20260502232800 | 21 | 78 | 19.0 | 29.0 | 0.00 | 0.00 | 0.00 | 10 | 811.8 |
| 20260502232650 | 21 | 75 | 21.0 | 26.0 | 0.00 | 0.00 | 0.00 | 10 | 811.9 |
| 20260502232540 | 21 | 70 | 23.0 | 28.0 | 0.00 | 0.00 | 0.00 | 10 | 812.2 |
| 20260502232430 | 21 | 71 | 22.0 | 31.0 | 0.00 | 0.00 | 0.00 | 10 | 812.2 |
| 20260502232320 | 21 | 77 | 18.0 | 28.0 | 0.00 | 0.00 | 0.00 | 10 | 812.1 |
| 20260502232210 | 21 | 73 | 19.0 | 26.0 | 0.00 | 0.00 | 0.00 | 10 | 812.2 |
| 20260502232100 | 21 | 70 | 21.0 | 28.0 | 0.00 | 0.00 | 0.00 | 10 | 812.1 |
| 20260502231950 | 21 | 70 | 22.0 | 26.0 | 0.00 | 0.00 | 0.00 | 10 | 811.9 |
| 20260502231840 | 21 | 71 | 23.0 | 29.0 | 0.00 | 0.00 | 0.00 | 10 | 811.8 |
| 20260502231510 | 21 | 75 | 19.0 | 24.0 | 0.00 | 0.00 | 0.00 | 10 | 812.1 |
| 20260502231400 | 21 | 93 | 15.0 | 29.0 | 0.00 | 0.00 | 0.00 | 10 | 812.2 |
| 20260502231250 | 21 | 75 | 18.0 | 24.0 | 0.00 | 0.00 | 0.00 | 10 | 812.2 |
| 20260502231140 | 21 | 71 | 22.0 | 27.0 | 0.00 | 0.00 | 0.00 | 10 | 811.8 |
| 20260502231030 | 21 | 80 | 17.0 | 25.0 | 0.00 | 0.00 | 0.00 | 10 | 811.8 |
| 20260502230920 | 21 | 72 | 21.0 | 27.0 | 0.00 | 0.00 | 0.00 | 10 | 812.2 |
| 20260502230700 | 21 | 73 | 16.0 | 20.0 | 0.00 | 0.00 | 0.00 | 10 | 812.3 |
| 20260502230550 | 21 | 80 | 12.0 | 19.0 | 0.00 | 0.00 | 0.00 | 10 | 812.5 |
| 20260502230440 | 21 | 73 | 16.0 | 21.0 | 0.00 | 0.00 | 0.00 | 10 | 812.5 |
| 20260502230330 | 21 | 74 | 16.0 | 23.0 | 0.00 | 0.00 | 0.00 | 10 | 812.5 |
| 20260502230220 | 21 | 73 | 17.0 | 25.0 | 0.00 | 0.00 | 0.00 | 10 | 812.3 |
| 20260502230110 | 21 | 76 | 16.0 | 22.0 | 0.00 | 0.00 | 0.00 | 10 | 812.2 |
| 20260502225850 | 21 | 75 | 15.0 | 20.0 | 0.00 | 0.00 | 0.00 | 10 | 812.6 |
| 20260502225740 | 21 | 91 | 10.0 | 15.0 | 0.00 | 0.00 | 0.00 | 10 | 812.7 |
| 20260502225631 | 21 | 121 | 7.0 | 12.0 | 0.00 | 0.00 | 0.00 | 10 | 812.9 |
| 20260502225520 | 21 | 86 | 8.0 | 12.0 | 0.00 | 0.00 | 0.00 | 10 | 812.7 |
| 20260502225411 | 21 | 97 | 8.0 | 16.0 | 0.00 | 0.00 | 0.00 | 10 | 812.9 |
| 20260502225300 | 21 | 83 | 9.0 | 15.0 | 0.00 | 0.00 | 0.00 | 10 | 812.7 |
| 20260502225152 | 21 | 105 | 9.0 | 14.0 | 0.00 | 0.00 | 0.00 | 10 | 812.7 |
| 20260502225044 | 21 | 78 | 10.0 | 18.0 | 0.00 | 0.00 | 0.00 | 10 | 812.7 |
| 20260502224823 | 21 | 129 | 7.0 | 16.0 | 0.00 | 0.00 | 0.00 | 10 | 812.9 |
| 20260502224710 | 21 | 142 | 7.0 | 12.0 | 0.00 | 0.00 | 0.00 | 10 | 812.9 |
| 20260502224603 | 21 | 152 | 10.0 | 21.0 | 0.00 | 0.00 | 0.00 | 10 | 812.7 |
| 20260502224450 | 21 | 155 | 9.0 | 19.0 | 0.00 | 0.00 | 0.00 | 10 | 812.9 |
| 20260502224340 | 21 | 151 | 8.0 | 19.0 | 0.00 | 0.00 | 0.00 | 10 | 813.0 |
| 20260502224230 | 21 | 87 | 10.0 | 18.0 | 0.00 | 0.00 | 0.00 | 10 | 813.0 |
| 20260502224121 | 21 | 115 | 8.0 | 18.0 | 0.00 | 0.00 | 0.00 | 10 | 812.7 |
| 20260502224010 | 21 | 160 | 6.0 | 16.0 | 0.00 | 0.00 | 0.00 | 10 | 812.9 |
| 20260502223750 | 21 | 145 | 6.0 | 13.0 | 0.00 | 0.00 | 0.00 | 10 | 813.0 |
| 20260502223640 | 21 | 144 | 6.0 | 12.0 | 0.00 | 0.00 | 0.00 | 10 | 812.9 |
| 20260502223420 | 21 | 87 | 7.0 | 11.0 | 0.00 | 0.00 | 0.00 | 10 | 812.9 |
| 20260502223310 | 21 | 119 | 7.0 | 15.0 | 0.00 | 0.00 | 0.00 | 10 | 813.0 |
| 20260502223200 | 21 | 103 | 8.0 | 18.0 | 0.00 | 0.00 | 0.00 | 10 | 812.9 |
| 20260502223050 | 21 | 101 | 8.0 | 14.0 | 0.00 | 0.00 | 0.00 | 10 | 812.9 |
| 20260502222940 | 21 | 86 | 8.0 | 15.0 | 0.00 | 0.00 | 0.00 | 10 | 812.9 |
| 20260502222351 | 21 | 126 | 6.0 | 15.0 | 0.00 | 0.00 | 0.00 | 10 | 812.9 |
| 20260502222242 | 21 | 137 | 6.0 | 12.0 | 0.00 | 0.00 | 0.00 | 10 | 812.9 |
| 20260502222020 | 21 | 151 | 7.0 | 12.0 | 0.00 | 0.00 | 0.00 | 10 | 813.0 |
| 20260502221910 | 22 | 141 | 7.0 | 15.0 | 0.00 | 0.00 | 0.00 | 10 | 813.0 |
| 20260502221801 | 22 | 107 | 7.0 | 11.0 | 0.00 | 0.00 | 0.00 | 10 | 812.9 |
| 20260502221542 | 21 | 143 | 7.0 | 16.0 | 0.00 | 0.00 | 0.00 | 10 | 813.0 |
| 20260502221320 | 21 | 151 | 6.0 | 13.0 | 0.00 | 0.00 | 0.00 | 10 | 813.0 |
| 20260502221210 | 21 | 155 | 6.0 | 14.0 | 0.00 | 0.00 | 0.00 | 10 | 813.0 |
| 20260502221100 | 21 | 184 | 8.0 | 16.0 | 0.00 | 0.00 | 0.00 | 10 | 813.0 |
| 20260502220953 | 21 | 140 | 7.0 | 12.0 | 0.00 | 0.00 | 0.00 | 10 | 813.0 |
| 20260502220840 | 21 | 154 | 7.0 | 13.0 | 0.00 | 0.00 | 0.00 | 10 | 813.1 |
| 20260502220730 | 21 | 132 | 8.0 | 20.0 | 0.00 | 0.00 | 0.00 | 10 | 813.0 |
| 20260502220620 | 21 | 186 | 7.0 | 17.0 | 0.00 | 0.00 | 0.00 | 10 | 812.9 |
| 20260502220510 | 21 | 169 | 7.0 | 15.0 | 0.00 | 0.00 | 0.00 | 10 | 813.0 |
| 20260502220400 | 21 | 137 | 8.0 | 17.0 | 0.00 | 0.00 | 0.00 | 10 | 813.0 |
| 20260502220250 | 21 | 148 | 7.0 | 17.0 | 0.00 | 0.00 | 0.00 | 10 | 813.0 |
| 20260502220140 | 21 | 111 | 7.0 | 12.0 | 0.00 | 0.00 | 0.00 | 10 | 813.0 |
| 20260502220030 | 21 | 183 | 8.0 | 18.0 | 0.00 | 0.00 | 0.00 | 10 | 813.0 |
| 20260502215920 | 22 | 117 | 10.0 | 18.0 | 0.00 | 0.00 | 0.00 | 10 | 813.0 |
| 20260502215700 | 22 | 127 | 8.0 | 16.0 | 0.00 | 0.00 | 0.00 | 10 | 813.0 |
| 20260502215550 | 22 | 122 | 8.0 | 13.0 | 0.00 | 0.00 | 0.00 | 10 | 813.0 |
| 20260502215440 | 22 | 173 | 9.0 | 17.0 | 0.00 | 0.00 | 0.00 | 10 | 813.0 |
| 20260502215330 | 22 | 160 | 8.0 | 23.0 | 0.00 | 0.00 | 0.00 | 10 | 813.1 |
| 20260502215228 | 22 | 121 | 8.0 | 12.0 | 0.00 | 0.00 | 0.00 | 10 | 813.0 |
| 20260502215110 | 22 | 117 | 8.0 | 14.0 | 0.00 | 0.00 | 0.00 | 10 | 813.0 |
| 20260502214850 | 22 | 152 | 6.0 | 12.0 | 0.00 | 0.00 | 0.00 | 10 | 813.0 |
| 20260502214740 | 22 | 158 | 7.0 | 16.0 | 0.00 | 0.00 | 0.00 | 10 | 813.1 |
| 20260502214633 | 22 | 164 | 6.0 | 12.0 | 0.00 | 0.00 | 0.00 | 10 | 813.1 |
| 20260502214521 | 22 | 124 | 7.0 | 18.0 | 0.00 | 0.00 | 0.00 | 10 | 813.0 |
| 20260502214300 | 22 | 115 | 8.0 | 16.0 | 0.00 | 0.00 | 0.00 | 10 | 813.0 |
| 20260502214150 | 22 | 149 | 7.0 | 13.0 | 0.00 | 0.00 | 0.00 | 10 | 813.0 |
| 20260502214040 | 22 | 128 | 8.0 | 15.0 | 0.00 | 0.00 | 0.00 | 10 | 813.0 |
| 20260502213930 | 21 | 122 | 8.0 | 17.0 | 0.00 | 0.00 | 0.00 | 10 | 813.1 |
| 20260502213820 | 21 | 140 | 7.0 | 12.0 | 0.00 | 0.00 | 0.00 | 10 | 813.1 |
| 20260502213600 | 21 | 158 | 7.0 | 17.0 | 0.00 | 0.00 | 0.00 | 10 | 813.0 |
| 20260502213450 | 21 | 133 | 7.0 | 12.0 | 0.00 | 0.00 | 0.00 | 10 | 813.1 |
| 20260502213340 | 21 | 166 | 9.0 | 29.0 | 0.00 | 0.00 | 0.00 | 10 | 813.0 |
| 20260502213230 | 21 | 155 | 9.0 | 23.0 | 0.00 | 0.00 | 0.00 | 10 | 813.1 |
| 20260502213121 | 22 | 168 | 9.0 | 26.0 | 0.00 | 0.00 | 0.00 | 10 | 813.0 |
| 20260502213010 | 21 | 170 | 9.0 | 19.0 | 0.00 | 0.00 | 0.00 | 10 | 813.0 |
| 20260502212900 | 22 | 151 | 8.0 | 19.0 | 0.00 | 0.00 | 0.00 | 10 | 813.0 |
| 20260502212751 | 22 | 169 | 7.0 | 13.0 | 0.00 | 0.00 | 0.00 | 10 | 813.3 |
| 20260502212641 | 22 | 130 | 8.0 | 27.0 | 0.00 | 0.00 | 0.00 | 10 | 813.1 |
| 20260502212530 | 22 | 180 | 11.0 | 21.0 | 0.00 | 0.00 | 0.00 | 10 | 813.0 |
| 20260502212427 | 22 | 120 | 8.0 | 18.0 | 0.00 | 0.00 | 0.00 | 10 | 813.0 |
| 20260502212311 | 22 | 120 | 9.0 | 16.0 | 0.00 | 0.00 | 0.00 | 10 | 813.0 |
| 20260502212200 | 22 | 142 | 8.0 | 14.0 | 0.00 | 0.00 | 0.00 | 10 | 813.0 |
| 20260502212050 | 22 | 173 | 7.0 | 16.0 | 0.00 | 0.00 | 0.00 | 10 | 813.0 |
| 20260502211948 | 22 | 98 | 10.0 | 15.0 | 0.00 | 0.00 | 0.00 | 10 | 813.0 |
| 20260502211720 | 22 | 126 | 10.0 | 17.0 | 0.00 | 0.00 | 0.00 | 10 | 813.0 |
| 20260502211610 | 22 | 144 | 9.0 | 18.0 | 0.00 | 0.00 | 0.00 | 10 | 813.3 |
| 20260502211500 | 22 | 128 | 9.0 | 16.0 | 0.00 | 0.00 | 0.00 | 10 | 813.0 |
| 20260502211350 | 22 | 116 | 10.0 | 18.0 | 0.00 | 0.00 | 0.00 | 10 | 813.0 |
| 20260502211240 | 22 | 141 | 10.0 | 17.0 | 0.00 | 0.00 | 0.00 | 10 | 813.0 |
| 20260502211021 | 22 | 150 | 7.0 | 18.0 | 0.00 | 0.00 | 0.00 | 10 | 813.0 |
| 20260502210910 | 22 | 110 | 9.0 | 17.0 | 0.00 | 0.00 | 0.00 | 10 | 813.0 |
| 20260502210650 | 22 | 193 | 8.0 | 14.0 | 0.00 | 0.00 | 0.00 | 10 | 813.1 |
| 20260502210430 | 22 | 156 | 7.0 | 19.0 | 0.00 | 0.00 | 0.00 | 10 | 813.1 |
| 20260502210320 | 22 | 157 | 7.0 | 13.0 | 0.00 | 0.00 | 0.00 | 10 | 813.3 |
| 20260502210213 | 22 | 132 | 7.0 | 12.0 | 0.00 | 0.00 | 0.00 | 10 | 813.1 |
| 20260502210100 | 22 | 119 | 8.0 | 13.0 | 0.00 | 0.00 | 0.00 | 10 | 813.0 |
| 20260502205950 | 22 | 165 | 8.0 | 15.0 | 0.00 | 0.00 | 0.00 | 10 | 813.3 |
| 20260502205841 | 22 | 125 | 9.0 | 14.0 | 0.00 | 0.00 | 0.00 | 10 | 813.1 |
| 20260502205730 | 22 | 125 | 8.0 | 15.0 | 0.00 | 0.00 | 0.00 | 10 | 813.3 |
| 20260502205401 | 22 | 93 | 10.0 | 15.0 | 0.00 | 0.00 | 0.00 | 10 | 813.3 |
| 20260502205250 | 22 | 87 | 9.0 | 12.0 | 0.00 | 0.00 | 0.00 | 10 | 813.3 |
| 20260502205030 | 22 | 128 | 7.0 | 12.0 | 0.00 | 0.00 | 0.00 | 10 | 813.3 |
| 20260502204920 | 22 | 119 | 7.0 | 14.0 | 0.00 | 0.00 | 0.00 | 10 | 813.3 |
| 20260502204810 | 22 | 173 | 8.0 | 17.0 | 0.00 | 0.00 | 0.00 | 10 | 813.3 |
| 20260502204700 | 22 | 150 | 8.0 | 16.0 | 0.00 | 0.00 | 0.00 | 10 | 813.1 |
| 20260502204442 | 22 | 115 | 9.0 | 17.0 | 0.00 | 0.00 | 0.00 | 10 | 813.1 |
| 20260502204330 | 22 | 110 | 8.0 | 15.0 | 0.00 | 0.00 | 0.00 | 10 | 813.1 |
| 20260502204220 | 22 | 189 | 7.0 | 15.0 | 0.00 | 0.00 | 0.00 | 10 | 813.3 |
| 20260502204114 | 22 | 126 | 9.0 | 16.0 | 0.00 | 0.00 | 0.00 | 10 | 813.0 |
| 20260502204001 | 22 | 118 | 9.0 | 16.0 | 0.00 | 0.00 | 0.00 | 10 | 813.0 |
| 20260502203850 | 22 | 104 | 10.0 | 19.0 | 0.00 | 0.00 | 0.00 | 10 | 813.0 |
| 20260502203741 | 22 | 94 | 10.0 | 15.0 | 0.00 | 0.00 | 0.00 | 10 | 813.0 |
| 20260502203630 | 22 | 85 | 11.0 | 15.0 | 0.00 | 0.00 | 0.00 | 10 | 813.0 |
| 20260502203525 | 22 | 82 | 11.0 | 19.0 | 0.00 | 0.00 | 0.00 | 10 | 813.0 |
| 20260502203410 | 22 | 104 | 8.0 | 15.0 | 0.00 | 0.00 | 0.00 | 10 | 813.0 |
| 20260502203301 | 22 | 150 | 8.0 | 15.0 | 0.00 | 0.00 | 0.00 | 10 | 813.3 |
| 20260502203151 | 22 | 153 | 8.0 | 15.0 | 0.00 | 0.00 | 0.00 | 10 | 813.1 |
| 20260502203043 | 22 | 111 | 10.0 | 20.0 | 0.00 | 0.00 | 0.00 | 10 | 813.1 |
| 20260502202930 | 22 | 105 | 10.0 | 15.0 | 0.00 | 0.00 | 0.00 | 10 | 813.0 |
| 20260502202823 | 22 | 85 | 11.0 | 18.0 | 0.00 | 0.00 | 0.00 | 10 | 813.0 |
| 20260502202710 | 22 | 96 | 10.0 | 15.0 | 0.00 | 0.00 | 0.00 | 10 | 813.0 |
| 20260502202600 | 22 | 87 | 12.0 | 16.0 | 0.00 | 0.00 | 0.00 | 10 | 813.1 |
| 20260502202450 | 22 | 123 | 8.0 | 16.0 | 0.00 | 0.00 | 0.00 | 10 | 813.1 |
| 20260502202120 | 22 | 89 | 11.0 | 17.0 | 0.00 | 0.00 | 0.00 | 10 | 813.0 |
| 20260502201750 | 22 | 159 | 7.0 | 17.0 | 0.00 | 0.00 | 0.00 | 10 | 813.3 |
| 20260502201640 | 22 | 135 | 11.0 | 20.0 | 0.00 | 0.00 | 0.00 | 10 | 813.1 |
| 20260502201530 | 22 | 102 | 9.0 | 14.0 | 0.00 | 0.00 | 0.00 | 10 | 813.1 |
| 20260502201310 | 22 | 171 | 7.0 | 16.0 | 0.00 | 0.00 | 0.00 | 10 | 813.3 |
| 20260502201200 | 22 | 143 | 7.0 | 17.0 | 0.00 | 0.00 | 0.00 | 10 | 813.1 |
| 20260502201050 | 22 | 170 | 8.0 | 14.0 | 0.00 | 0.00 | 0.00 | 10 | 813.3 |
| 20260502200940 | 22 | 131 | 10.0 | 17.0 | 0.00 | 0.00 | 0.00 | 10 | 813.3 |
| 20260502200830 | 22 | 113 | 11.0 | 16.0 | 0.00 | 0.00 | 0.00 | 10 | 813.1 |
| 20260502200610 | 22 | 111 | 7.0 | 16.0 | 0.00 | 0.00 | 0.00 | 10 | 813.3 |
| 20260502200502 | 22 | 85 | 11.0 | 16.0 | 0.00 | 0.00 | 0.00 | 10 | 813.0 |
| 20260502200350 | 22 | 126 | 8.0 | 13.0 | 0.00 | 0.00 | 0.00 | 10 | 813.1 |
| 20260502200240 | 22 | 156 | 8.0 | 14.0 | 0.00 | 0.00 | 0.00 | 10 | 813.1 |
| 20260502200130 | 22 | 104 | 10.0 | 17.0 | 0.00 | 0.00 | 0.00 | 10 | 813.3 |
| 20260502200020 | 22 | 165 | 9.0 | 16.0 | 0.00 | 0.00 | 0.00 | 10 | 813.1 |
| 20260502195910 | 22 | 105 | 10.0 | 17.0 | 0.00 | 0.00 | 0.00 | 10 | 813.3 |
| 20260502195801 | 22 | 97 | 9.0 | 15.0 | 0.00 | 0.00 | 0.00 | 10 | 813.3 |
| 20260502195650 | 22 | 132 | 9.0 | 17.0 | 0.00 | 0.00 | 0.00 | 10 | 813.3 |
| 20260502195540 | 23 | 139 | 7.0 | 15.0 | 0.00 | 0.00 | 0.00 | 10 | 813.3 |
| 20260502195320 | 23 | 88 | 12.0 | 18.0 | 0.00 | 0.00 | 0.00 | 10 | 813.3 |
| 20260502195210 | 23 | 132 | 8.0 | 14.0 | 0.00 | 0.00 | 0.00 | 10 | 813.4 |
| 20260502195100 | 23 | 102 | 9.0 | 15.0 | 0.00 | 0.00 | 0.00 | 10 | 813.3 |
| 20260502194950 | 23 | 103 | 9.0 | 16.0 | 0.00 | 0.00 | 0.00 | 10 | 813.3 |
| 20260502194840 | 23 | 90 | 11.0 | 16.0 | 0.00 | 0.00 | 0.00 | 10 | 813.3 |
| 20260502194730 | 23 | 79 | 15.0 | 21.0 | 0.00 | 0.00 | 0.00 | 10 | 813.0 |
| 20260502194620 | 23 | 93 | 10.0 | 15.0 | 0.00 | 0.00 | 0.00 | 10 | 813.1 |
| 20260502194510 | 23 | 82 | 13.0 | 19.0 | 0.00 | 0.00 | 0.00 | 10 | 813.0 |
| 20260502194250 | 23 | 116 | 11.0 | 21.0 | 0.00 | 0.00 | 0.00 | 10 | 813.1 |
| 20260502194140 | 23 | 132 | 10.0 | 17.0 | 0.00 | 0.00 | 0.00 | 10 | 813.1 |
| 20260502194030 | 23 | 83 | 15.0 | 20.0 | 0.00 | 0.00 | 0.00 | 10 | 813.1 |
| 20260502193920 | 23 | 171 | 7.0 | 15.0 | 0.00 | 0.00 | 0.00 | 10 | 813.3 |
| 20260502193810 | 23 | 77 | 14.0 | 19.0 | 0.00 | 0.00 | 0.00 | 10 | 813.0 |
| 20260502193700 | 23 | 128 | 8.0 | 15.0 | 0.00 | 0.00 | 0.00 | 10 | 813.3 |
| 20260502193550 | 23 | 98 | 9.0 | 16.0 | 0.00 | 0.00 | 0.00 | 10 | 813.1 |
| 20260502193220 | 23 | 113 | 8.0 | 12.0 | 0.00 | 0.00 | 0.00 | 10 | 813.3 |
| 20260502193000 | 23 | 99 | 10.0 | 20.0 | 0.00 | 0.00 | 0.00 | 10 | 813.1 |
| 20260502192850 | 23 | 95 | 10.0 | 18.0 | 0.00 | 0.00 | 0.00 | 10 | 813.1 |
| 20260502192630 | 23 | 77 | 15.0 | 21.0 | 0.00 | 0.00 | 0.00 | 10 | 813.1 |
| 20260502192520 | 23 | 115 | 10.0 | 16.0 | 0.00 | 0.00 | 0.00 | 10 | 813.1 |
| 20260502192410 | 23 | 88 | 11.0 | 17.0 | 0.00 | 0.00 | 0.00 | 10 | 813.1 |
| 20260502192300 | 23 | 71 | 18.0 | 24.0 | 0.00 | 0.00 | 0.00 | 10 | 813.0 |
| 20260502192150 | 23 | 85 | 12.0 | 19.0 | 0.00 | 0.00 | 0.00 | 10 | 813.0 |
| 20260502192040 | 22 | 74 | 18.0 | 24.0 | 0.00 | 0.00 | 0.00 | 10 | 813.0 |
| 20260502191930 | 22 | 80 | 12.0 | 17.0 | 0.00 | 0.00 | 0.00 | 10 | 813.3 |
| 20260502191820 | 22 | 81 | 12.0 | 18.0 | 0.00 | 0.00 | 0.00 | 10 | 813.3 |
| 20260502191710 | 22 | 74 | 16.0 | 23.0 | 0.00 | 0.00 | 0.00 | 10 | 813.1 |
| 20260502191600 | 22 | 80 | 13.0 | 22.0 | 0.00 | 0.00 | 0.00 | 10 | 813.3 |
| 20260502191450 | 22 | 84 | 12.0 | 17.0 | 0.00 | 0.00 | 0.00 | 10 | 813.3 |
| 20260502191340 | 22 | 100 | 10.0 | 15.0 | 0.00 | 0.00 | 0.00 | 10 | 813.4 |
| 20260502191232 | 22 | 82 | 12.0 | 19.0 | 0.00 | 0.00 | 0.00 | 10 | 813.1 |
| 20260502191120 | 22 | 125 | 8.0 | 14.0 | 0.00 | 0.00 | 0.00 | 10 | 813.3 |
| 20260502190900 | 22 | 73 | 15.0 | 22.0 | 0.00 | 0.00 | 0.00 | 10 | 813.3 |
| 20260502190750 | 22 | 72 | 11.0 | 16.0 | 0.00 | 0.00 | 0.00 | 10 | 813.3 |
| 20260502190640 | 22 | 74 | 17.0 | 22.0 | 0.00 | 0.00 | 0.00 | 10 | 813.0 |
| 20260502190420 | 22 | 76 | 15.0 | 20.0 | 0.00 | 0.00 | 0.00 | 10 | 813.0 |
| 20260502190200 | 22 | 76 | 13.0 | 17.0 | 0.00 | 0.00 | 0.00 | 10 | 813.3 |
| 20260502185940 | 22 | 80 | 13.0 | 20.0 | 0.00 | 0.00 | 0.00 | 10 | 813.3 |
| 20260502185830 | 22 | 71 | 17.0 | 29.0 | 0.00 | 0.00 | 0.00 | 10 | 813.0 |
| 20260502185610 | 22 | 67 | 20.0 | 23.0 | 0.00 | 0.00 | 0.00 | 10 | 813.0 |
| 20260502185500 | 22 | 71 | 16.0 | 23.0 | 0.00 | 0.00 | 0.00 | 10 | 813.0 |
| 20260502185350 | 22 | 70 | 19.0 | 28.0 | 0.00 | 0.00 | 0.00 | 10 | 813.1 |
| 20260502185131 | 22 | 74 | 16.0 | 21.0 | 0.00 | 0.00 | 0.00 | 10 | 813.0 |
| 20260502185020 | 22 | 70 | 15.0 | 21.0 | 0.00 | 0.00 | 0.00 | 10 | 813.1 |
| 20260502184910 | 22 | 72 | 17.0 | 23.0 | 0.00 | 0.00 | 0.00 | 10 | 813.1 |
| 20260502184800 | 22 | 71 | 17.0 | 20.0 | 0.00 | 0.00 | 0.00 | 10 | 813.0 |
| 20260502184540 | 22 | 73 | 18.0 | 26.0 | 0.00 | 0.00 | 0.00 | 10 | 813.0 |
| 20260502184430 | 22 | 75 | 16.0 | 23.0 | 0.00 | 0.00 | 0.00 | 10 | 813.0 |
| 20260502184320 | 22 | 74 | 18.0 | 23.0 | 0.00 | 0.00 | 0.00 | 10 | 813.0 |
| 20260502184210 | 22 | 72 | 18.0 | 23.0 | 0.00 | 0.00 | 0.00 | 10 | 813.0 |
| 20260502184100 | 22 | 69 | 18.0 | 23.0 | 0.00 | 0.00 | 0.00 | 10 | 813.0 |
| 20260502183950 | 22 | 74 | 16.0 | 22.0 | 0.00 | 0.00 | 0.00 | 10 | 813.0 |
| 20260502183840 | 22 | 76 | 15.0 | 18.0 | 0.00 | 0.00 | 0.00 | 10 | 813.0 |
| 20260502183730 | 22 | 72 | 17.0 | 22.0 | 0.00 | 0.00 | 0.00 | 10 | 813.1 |
| 20260502183620 | 22 | 83 | 12.0 | 19.0 | 0.00 | 0.00 | 0.00 | 10 | 813.0 |
| 20260502183400 | 22 | 73 | 16.0 | 20.0 | 0.00 | 0.00 | 0.00 | 10 | 813.0 |
| 20260502183250 | 22 | 68 | 20.0 | 24.0 | 0.00 | 0.00 | 0.00 | 10 | 813.0 |
| 20260502183030 | 22 | 81 | 13.0 | 21.0 | 0.00 | 0.00 | 0.00 | 10 | 813.0 |
| 20260502182810 | 22 | 85 | 14.0 | 21.0 | 0.00 | 0.00 | 0.00 | 10 | 812.9 |
| 20260502182700 | 22 | 131 | 10.0 | 15.0 | 0.00 | 0.00 | 0.00 | 10 | 813.0 |
| 20260502182550 | 22 | 89 | 15.0 | 22.0 | 0.00 | 0.00 | 0.00 | 10 | 812.9 |
| 20260502182440 | 22 | 70 | 21.0 | 25.0 | 0.00 | 0.00 | 0.00 | 10 | 812.6 |
| 20260502182330 | 22 | 82 | 16.0 | 24.0 | 0.00 | 0.00 | 0.00 | 10 | 813.0 |
| 20260502182220 | 22 | 91 | 11.0 | 17.0 | 0.00 | 0.00 | 0.00 | 10 | 813.0 |
| 20260502182000 | 22 | 129 | 9.0 | 16.0 | 0.00 | 0.00 | 0.00 | 10 | 812.9 |
| 20260502181850 | 22 | 88 | 11.0 | 17.0 | 0.00 | 0.00 | 0.00 | 10 | 812.9 |
| 20260502181740 | 22 | 96 | 11.0 | 17.0 | 0.00 | 0.00 | 0.00 | 10 | 813.0 |
| 20260502181630 | 22 | 92 | 13.0 | 17.0 | 0.00 | 0.00 | 0.00 | 10 | 812.9 |
| 20260502181520 | 22 | 85 | 12.0 | 17.0 | 0.00 | 0.00 | 0.00 | 10 | 813.0 |
| 20260502181300 | 22 | 142 | 7.0 | 16.0 | 0.00 | 0.00 | 0.00 | 10 | 813.0 |
| 20260502181150 | 22 | 100 | 9.0 | 16.0 | 0.00 | 0.00 | 0.00 | 10 | 813.0 |